Time,TemperatureF,DewpointF,PressureIn,WindDirection,WindDirectionDegrees,WindSpeedMPH,WindSpeedGustMPH,Humidity,HourlyPrecipIn,Conditions,Clouds,dailyrainin,SoftwareType,DateUTC
2013-08-11 00:01:00,70.9,68.1,30.15,ESE,113,0.0,0.0,91,0.00,,,0.00,WUHU216HW,2013-08-11 04:01:00,
2013-08-11 00:06:00,70.7,68.0,30.15,ESE,113,0.0,0.0,91,0.00,,,0.00,WUHU216HW,2013-08-11 04:06:00,
2013-08-11 00:11:00,70.7,68.0,30.15,ESE,113,0.0,0.0,91,0.00,,,0.00,WUHU216HW,2013-08-11 04:11:00,
2013-08-11 00:16:00,70.7,68.0,30.15,East,90,0.0,0.0,91,0.00,,,0.00,WUHU216HW,2013-08-11 04:16:00,
2013-08-11 00:21:00,70.6,67.8,30.15,ENE,68,0.0,0.0,91,0.00,,,0.00,WUHU216HW,2013-08-11 04:21:00,
2013-08-11 00:26:00,70.6,67.8,30.15,ENE,68,0.0,0.0,91,0.00,,,0.00,WUHU216HW,2013-08-11 04:26:00,
2013-08-11 00:31:00,70.6,68.1,30.15,ENE,68,0.0,0.0,92,0.00,,,0.00,WUHU216HW,2013-08-11 04:31:00,
2013-08-11 00:36:00,70.6,68.1,30.15,ENE,68,0.0,0.0,92,0.00,,,0.00,WUHU216HW,2013-08-11 04:36:00,
2013-08-11 00:41:00,70.6,68.1,30.15,ENE,68,0.0,0.0,92,0.00,,,0.00,WUHU216HW,2013-08-11 04:41:00,
2013-08-11 00:46:00,70.6,68.1,30.15,ENE,68,0.0,0.0,92,0.00,,,0.00,WUHU216HW,2013-08-11 04:46:00,
2013-08-11 00:51:00,70.6,68.1,30.15,ENE,68,0.0,0.0,92,0.00,,,0.00,WUHU216HW,2013-08-11 04:51:00,
2013-08-11 00:56:00,70.6,68.1,30.15,ENE,68,0.0,0.0,92,0.00,,,0.00,WUHU216HW,2013-08-11 04:56:00,
2013-08-11 01:01:00,70.4,68.0,30.15,ENE,68,0.0,0.0,92,0.00,,,0.00,WUHU216HW,2013-08-11 05:01:00,
2013-08-11 01:06:00,70.4,68.0,30.15,ENE,68,0.0,0.0,92,0.00,,,0.00,WUHU216HW,2013-08-11 05:06:00,
2013-08-11 01:11:00,70.4,68.0,30.15,ENE,68,0.0,0.0,92,0.00,,,0.00,WUHU216HW,2013-08-11 05:11:00,
2013-08-11 01:17:00,70.4,68.0,30.15,ENE,68,0.0,0.0,92,0.00,,,0.00,WUHU216HW,2013-08-11 05:17:00,
2013-08-11 01:22:00,70.2,67.8,30.15,ENE,68,0.0,0.0,92,0.00,,,0.00,WUHU216HW,2013-08-11 05:22:00,
2013-08-11 01:27:00,70.2,67.8,30.15,East,90,0.0,0.0,92,0.00,,,0.00,WUHU216HW,2013-08-11 05:27:00,
2013-08-11 01:32:00,70.2,67.8,30.15,East,90,0.0,0.0,92,0.00,,,0.00,WUHU216HW,2013-08-11 05:32:00,
2013-08-11 01:37:00,70.2,67.8,30.15,East,90,0.0,0.0,92,0.00,,,0.00,WUHU216HW,2013-08-11 05:37:00,
2013-08-11 01:42:00,70.2,67.8,30.15,East,90,0.0,0.0,92,0.00,,,0.00,WUHU216HW,2013-08-11 05:42:00,
2013-08-11 01:47:00,70.0,67.6,30.15,East,90,0.0,0.0,92,0.00,,,0.00,WUHU216HW,2013-08-11 05:47:00,
2013-08-11 01:52:00,69.8,67.4,30.15,East,90,0.0,0.0,92,0.00,,,0.00,WUHU216HW,2013-08-11 05:52:00,
2013-08-11 01:57:00,69.8,67.4,30.15,East,90,0.0,0.0,92,0.00,,,0.00,WUHU216HW,2013-08-11 05:57:00,
2013-08-11 02:03:00,69.8,67.4,30.15,East,90,0.0,0.0,92,0.00,,,0.00,WUHU216HW,2013-08-11 06:03:00,
2013-08-11 02:08:00,69.8,67.4,30.15,East,90,0.0,0.0,92,0.00,,,0.00,WUHU216HW,2013-08-11 06:08:00,
2013-08-11 02:13:00,69.8,67.4,30.15,East,90,0.0,0.0,92,0.00,,,0.00,WUHU216HW,2013-08-11 06:13:00,
2013-08-11 02:18:00,69.8,67.4,30.15,East,90,0.0,0.0,92,0.00,,,0.00,WUHU216HW,2013-08-11 06:18:00,
2013-08-11 02:23:00,69.8,67.4,30.14,East,90,0.0,0.0,92,0.00,,,0.00,WUHU216HW,2013-08-11 06:23:00,
2013-08-11 02:28:00,70.0,67.6,30.15,East,90,0.0,0.0,92,0.00,,,0.00,WUHU216HW,2013-08-11 06:28:00,
2013-08-11 02:33:00,69.8,67.4,30.15,ESE,113,0.0,0.0,92,0.00,,,0.00,WUHU216HW,2013-08-11 06:33:00,
2013-08-11 02:38:00,69.8,67.4,30.14,ESE,113,0.0,0.0,92,0.00,,,0.00,WUHU216HW,2013-08-11 06:38:00,
2013-08-11 02:44:00,69.8,67.4,30.14,ESE,113,0.0,0.0,92,0.00,,,0.00,WUHU216HW,2013-08-11 06:44:00,
2013-08-11 02:49:00,69.7,67.2,30.14,ESE,113,0.4,0.7,92,0.00,,,0.00,WUHU216HW,2013-08-11 06:49:00,
2013-08-11 02:55:00,69.7,67.2,30.14,ESE,113,0.2,0.7,92,0.00,,,0.00,WUHU216HW,2013-08-11 06:55:00,
2013-08-11 03:00:00,69.7,67.2,30.14,ESE,113,0.2,0.9,92,0.00,,,0.00,WUHU216HW,2013-08-11 07:00:00,
2013-08-11 03:05:00,69.7,67.2,30.14,ESE,113,0.0,0.9,92,0.00,,,0.00,WUHU216HW,2013-08-11 07:05:00,
2013-08-11 03:10:00,69.5,67.1,30.14,ESE,113,0.0,0.4,92,0.00,,,0.00,WUHU216HW,2013-08-11 07:10:00,
2013-08-11 03:15:00,69.5,67.3,30.14,ESE,113,0.0,0.0,93,0.00,,,0.00,WUHU216HW,2013-08-11 07:15:00,
2013-08-11 03:20:00,69.7,67.2,30.14,ESE,113,0.0,0.0,92,0.00,,,0.00,WUHU216HW,2013-08-11 07:20:00,
2013-08-11 03:25:00,69.7,67.5,30.14,ESE,113,0.0,0.7,93,0.00,,,0.00,WUHU216HW,2013-08-11 07:25:00,
2013-08-11 03:30:00,69.7,67.5,30.14,ESE,113,0.0,0.7,93,0.00,,,0.00,WUHU216HW,2013-08-11 07:30:00,
2013-08-11 03:35:00,69.7,67.5,30.13,ESE,113,0.0,0.0,93,0.00,,,0.00,WUHU216HW,2013-08-11 07:35:00,
2013-08-11 03:41:00,69.7,67.5,30.14,ESE,113,0.0,0.0,93,0.00,,,0.00,WUHU216HW,2013-08-11 07:41:00,
2013-08-11 03:46:00,69.7,67.5,30.14,ESE,113,0.0,0.0,93,0.00,,,0.00,WUHU216HW,2013-08-11 07:46:00,
2013-08-11 03:51:00,69.7,67.5,30.14,ESE,113,0.0,0.0,93,0.00,,,0.00,WUHU216HW,2013-08-11 07:51:00,
2013-08-11 03:56:00,69.8,67.7,30.14,ESE,113,0.0,0.0,93,0.00,,,0.00,WUHU216HW,2013-08-11 07:56:00,
2013-08-11 04:01:00,69.7,67.5,30.14,ESE,113,0.0,0.2,93,0.00,,,0.00,WUHU216HW,2013-08-11 08:01:00,
2013-08-11 04:06:00,69.8,67.7,30.14,ESE,113,0.0,0.2,93,0.00,,,0.00,WUHU216HW,2013-08-11 08:06:00,
2013-08-11 04:11:00,69.8,67.7,30.14,ESE,113,0.0,0.0,93,0.00,,,0.00,WUHU216HW,2013-08-11 08:11:00,
2013-08-11 04:16:00,69.8,67.7,30.14,ESE,113,0.0,0.0,93,0.00,,,0.00,WUHU216HW,2013-08-11 08:16:00,
2013-08-11 04:21:00,69.8,67.7,30.14,ESE,113,0.0,0.0,93,0.00,,,0.00,WUHU216HW,2013-08-11 08:21:00,
2013-08-11 04:27:00,69.8,67.7,30.14,ESE,113,0.0,0.0,93,0.00,,,0.00,WUHU216HW,2013-08-11 08:27:00,
2013-08-11 04:32:00,69.8,67.7,30.14,ESE,113,0.0,0.0,93,0.00,,,0.00,WUHU216HW,2013-08-11 08:32:00,
2013-08-11 04:37:00,69.8,67.7,30.14,NNE,23,0.0,0.0,93,0.00,,,0.00,WUHU216HW,2013-08-11 08:37:00,
2013-08-11 04:42:00,69.8,67.7,30.14,NNE,23,0.0,0.0,93,0.00,,,0.00,WUHU216HW,2013-08-11 08:42:00,
2013-08-11 04:47:00,69.8,67.7,30.15,NNE,23,0.0,0.0,93,0.00,,,0.00,WUHU216HW,2013-08-11 08:47:00,
2013-08-11 04:52:00,69.8,67.7,30.15,NNE,23,0.0,0.0,93,0.00,,,0.00,WUHU216HW,2013-08-11 08:52:00,
2013-08-11 04:58:00,69.8,67.7,30.15,NNE,23,0.0,0.0,93,0.00,,,0.00,WUHU216HW,2013-08-11 08:58:00,
2013-08-11 05:03:00,69.8,67.7,30.14,NNE,23,0.0,0.0,93,0.00,,,0.00,WUHU216HW,2013-08-11 09:03:00,
2013-08-11 05:08:00,69.8,67.7,30.15,NNE,23,0.0,0.0,93,0.00,,,0.00,WUHU216HW,2013-08-11 09:08:00,
2013-08-11 05:13:00,69.8,67.7,30.15,NNE,23,0.0,0.0,93,0.00,,,0.00,WUHU216HW,2013-08-11 09:13:00,
2013-08-11 05:18:00,69.8,67.7,30.15,NNE,23,0.0,0.0,93,0.00,,,0.00,WUHU216HW,2013-08-11 09:18:00,
2013-08-11 05:23:00,69.8,67.7,30.15,East,90,0.2,0.2,93,0.00,,,0.00,WUHU216HW,2013-08-11 09:23:00,
2013-08-11 05:28:00,69.8,67.7,30.15,ESE,113,0.4,0.9,93,0.00,,,0.00,WUHU216HW,2013-08-11 09:28:00,
2013-08-11 05:33:00,69.8,67.7,30.15,ESE,113,0.0,0.9,93,0.00,,,0.00,WUHU216HW,2013-08-11 09:33:00,
2013-08-11 05:38:00,69.8,67.7,30.15,ESE,113,0.0,0.4,93,0.00,,,0.00,WUHU216HW,2013-08-11 09:38:00,
2013-08-11 05:43:00,69.8,67.7,30.16,ESE,113,0.0,0.0,93,0.00,,,0.00,WUHU216HW,2013-08-11 09:43:00,
2013-08-11 05:49:00,69.8,67.7,30.16,ESE,113,0.0,0.0,93,0.00,,,0.00,WUHU216HW,2013-08-11 09:49:00,
2013-08-11 05:54:00,69.8,67.7,30.16,ESE,113,0.0,0.0,93,0.00,,,0.00,WUHU216HW,2013-08-11 09:54:00,
2013-08-11 05:59:00,69.8,67.7,30.16,ESE,113,0.0,0.0,93,0.00,,,0.00,WUHU216HW,2013-08-11 09:59:00,
2013-08-11 06:04:00,69.8,67.7,30.16,ESE,113,0.0,0.0,93,0.00,,,0.00,WUHU216HW,2013-08-11 10:04:00,
2013-08-11 06:09:00,69.7,67.5,30.16,ESE,113,0.0,0.0,93,0.00,,,0.00,WUHU216HW,2013-08-11 10:09:00,
2013-08-11 06:14:00,69.8,67.7,30.16,ESE,113,0.0,0.0,93,0.00,,,0.00,WUHU216HW,2013-08-11 10:14:00,
2013-08-11 06:19:00,69.7,67.5,30.16,ESE,113,0.0,0.0,93,0.00,,,0.00,WUHU216HW,2013-08-11 10:19:00,
2013-08-11 06:24:00,69.8,67.7,30.16,ESE,113,0.0,0.0,93,0.00,,,0.00,WUHU216HW,2013-08-11 10:24:00,
2013-08-11 06:29:00,69.8,67.7,30.16,ESE,113,0.0,0.0,93,0.00,,,0.00,WUHU216HW,2013-08-11 10:29:00,
2013-08-11 06:35:00,69.8,67.7,30.16,ESE,113,0.0,0.0,93,0.00,,,0.00,WUHU216HW,2013-08-11 10:35:00,
2013-08-11 06:40:00,69.8,67.7,30.16,ESE,113,0.0,0.0,93,0.00,,,0.00,WUHU216HW,2013-08-11 10:40:00,
2013-08-11 06:45:00,69.8,67.7,30.16,ESE,113,0.0,0.2,93,0.00,,,0.00,WUHU216HW,2013-08-11 10:45:00,
2013-08-11 06:50:00,69.8,67.7,30.16,ESE,113,0.0,0.2,93,0.00,,,0.00,WUHU216HW,2013-08-11 10:50:00,
2013-08-11 06:56:00,69.8,67.7,30.16,ESE,113,0.0,0.0,93,0.00,,,0.00,WUHU216HW,2013-08-11 10:56:00,
2013-08-11 07:01:00,69.8,67.7,30.16,ESE,113,0.0,0.9,93,0.00,,,0.00,WUHU216HW,2013-08-11 11:01:00,
2013-08-11 07:06:00,69.8,67.7,30.16,ESE,113,0.0,0.9,93,0.00,,,0.00,WUHU216HW,2013-08-11 11:06:00,
2013-08-11 07:11:00,69.8,67.7,30.16,SSE,158,0.0,0.4,93,0.00,,,0.00,WUHU216HW,2013-08-11 11:11:00,
2013-08-11 07:16:00,69.8,67.7,30.17,SSE,158,0.0,0.4,93,0.00,,,0.00,WUHU216HW,2013-08-11 11:16:00,
2013-08-11 07:22:00,69.8,67.7,30.17,SE,135,0.0,0.2,93,0.00,,,0.00,WUHU216HW,2013-08-11 11:22:00,
2013-08-11 07:27:00,70.0,67.9,30.17,SE,135,0.0,0.2,93,0.00,,,0.00,WUHU216HW,2013-08-11 11:27:00,
2013-08-11 07:32:00,70.0,67.9,30.17,SE,135,0.0,0.4,93,0.00,,,0.00,WUHU216HW,2013-08-11 11:32:00,
2013-08-11 07:37:00,70.2,68.0,30.17,SE,135,0.0,0.4,93,0.00,,,0.00,WUHU216HW,2013-08-11 11:37:00,
2013-08-11 07:42:00,70.2,68.0,30.17,SE,135,0.0,0.2,93,0.00,,,0.00,WUHU216HW,2013-08-11 11:42:00,
2013-08-11 07:47:00,70.2,68.0,30.17,SE,135,0.0,0.2,93,0.00,,,0.00,WUHU216HW,2013-08-11 11:47:00,
2013-08-11 07:52:00,70.2,68.0,30.17,SE,135,0.0,0.0,93,0.00,,,0.00,WUHU216HW,2013-08-11 11:52:00,
2013-08-11 07:58:00,70.2,68.0,30.18,SE,135,0.0,0.0,93,0.00,,,0.00,WUHU216HW,2013-08-11 11:58:00,
2013-08-11 08:03:00,70.4,68.2,30.18,SE,135,0.0,0.0,93,0.00,,,0.00,WUHU216HW,2013-08-11 12:03:00,
2013-08-11 08:08:00,70.4,68.6,30.18,SE,135,0.0,0.0,94,0.00,,,0.00,WUHU216HW,2013-08-11 12:08:00,
2013-08-11 08:13:00,70.4,68.2,30.18,SE,135,0.0,0.0,93,0.00,,,0.00,WUHU216HW,2013-08-11 12:13:00,
2013-08-11 08:18:00,70.6,68.4,30.18,SE,135,0.0,0.0,93,0.00,,,0.00,WUHU216HW,2013-08-11 12:18:00,
2013-08-11 08:23:00,70.6,68.4,30.18,ESE,113,0.0,0.9,93,0.00,,,0.00,WUHU216HW,2013-08-11 12:23:00,
2013-08-11 08:28:00,70.7,68.6,30.18,ESE,113,0.0,0.9,93,0.00,,,0.00,WUHU216HW,2013-08-11 12:28:00,
2013-08-11 08:33:00,70.7,68.6,30.18,East,90,0.0,0.0,93,0.00,,,0.00,WUHU216HW,2013-08-11 12:33:00,
2013-08-11 08:38:00,70.9,69.1,30.18,North,0,0.0,0.4,94,0.00,,,0.00,WUHU216HW,2013-08-11 12:38:00,
2013-08-11 08:43:00,70.9,69.1,30.18,North,0,0.0,0.4,94,0.00,,,0.00,WUHU216HW,2013-08-11 12:43:00,
2013-08-11 08:48:00,71.1,69.3,30.18,North,0,0.0,0.0,94,0.00,,,0.00,WUHU216HW,2013-08-11 12:48:00,
2013-08-11 08:53:00,71.3,69.5,30.18,East,90,0.0,0.2,94,0.00,,,0.00,WUHU216HW,2013-08-11 12:53:00,
2013-08-11 08:59:00,71.3,69.5,30.19,East,90,0.0,0.2,94,0.00,,,0.00,WUHU216HW,2013-08-11 12:59:00,
2013-08-11 09:04:00,71.5,69.7,30.18,East,90,0.0,0.0,94,0.00,,,0.00,WUHU216HW,2013-08-11 13:04:00,
2013-08-11 09:09:00,71.5,69.7,30.18,South,180,0.0,0.9,94,0.00,,,0.00,WUHU216HW,2013-08-11 13:09:00,
2013-08-11 09:14:00,71.6,69.9,30.19,West,270,1.1,1.1,94,0.00,,,0.00,WUHU216HW,2013-08-11 13:14:00,
2013-08-11 09:20:00,71.6,69.9,30.19,West,270,0.0,1.1,94,0.00,,,0.00,WUHU216HW,2013-08-11 13:20:00,
2013-08-11 09:25:00,71.6,69.9,30.18,West,270,0.0,0.2,94,0.00,,,0.00,WUHU216HW,2013-08-11 13:25:00,
2013-08-11 09:30:00,71.8,70.0,30.19,West,270,0.0,0.2,94,0.00,,,0.00,WUHU216HW,2013-08-11 13:30:00,
2013-08-11 09:35:00,72.0,70.2,30.19,NW,315,0.0,0.2,94,0.00,,,0.00,WUHU216HW,2013-08-11 13:35:00,
2013-08-11 09:40:00,72.0,70.2,30.19,NW,315,0.0,0.2,94,0.00,,,0.00,WUHU216HW,2013-08-11 13:40:00,
2013-08-11 09:45:00,72.2,70.4,30.19,NNW,338,0.0,0.2,94,0.00,,,0.00,WUHU216HW,2013-08-11 13:45:00,
2013-08-11 09:50:00,72.2,70.4,30.19,WNW,293,0.0,0.9,94,0.00,,,0.00,WUHU216HW,2013-08-11 13:50:00,
2013-08-11 09:55:00,72.4,70.6,30.19,West,270,0.7,1.3,94,0.00,,,0.00,WUHU216HW,2013-08-11 13:55:00,
2013-08-11 10:01:00,72.4,70.6,30.19,West,270,0.2,1.3,94,0.00,,,0.00,WUHU216HW,2013-08-11 14:01:00,
2013-08-11 10:06:00,72.4,70.6,30.19,West,270,1.1,1.6,94,0.00,,,0.00,WUHU216HW,2013-08-11 14:06:00,
2013-08-11 10:11:00,72.4,70.6,30.19,SW,225,1.1,1.8,94,0.00,,,0.00,WUHU216HW,2013-08-11 14:11:00,
2013-08-11 10:16:00,72.5,70.8,30.19,WSW,248,2.0,2.0,94,0.00,,,0.00,WUHU216HW,2013-08-11 14:16:00,
2013-08-11 10:22:00,72.7,70.9,30.19,WNW,293,0.9,2.0,94,0.00,,,0.00,WUHU216HW,2013-08-11 14:22:00,
2013-08-11 10:27:00,73.1,71.3,30.19,West,270,1.1,2.0,94,0.00,,,0.00,WUHU216HW,2013-08-11 14:27:00,
2013-08-11 10:32:00,73.1,71.3,30.19,WSW,248,0.9,2.0,94,0.00,,,0.00,WUHU216HW,2013-08-11 14:32:00,
2013-08-11 10:38:00,73.3,71.5,30.19,West,270,1.6,1.8,94,0.00,,,0.00,WUHU216HW,2013-08-11 14:38:00,
2013-08-11 10:43:00,73.3,71.1,30.19,WNW,293,0.4,1.8,93,0.00,,,0.00,WUHU216HW,2013-08-11 14:43:00,
2013-08-11 10:48:00,73.4,71.7,30.19,SSE,158,1.3,1.8,94,0.00,,,0.00,WUHU216HW,2013-08-11 14:48:00,
2013-08-11 10:53:00,73.6,71.8,30.19,WSW,248,0.4,2.9,94,0.00,,,0.00,WUHU216HW,2013-08-11 14:53:00,
2013-08-11 10:58:00,73.8,72.0,30.19,WSW,248,1.8,2.9,94,0.00,,,0.00,WUHU216HW,2013-08-11 14:58:00,
2013-08-11 11:03:00,73.8,72.0,30.19,WNW,293,1.6,2.5,94,0.00,,,0.00,WUHU216HW,2013-08-11 15:03:00,
2013-08-11 11:08:00,74.0,72.2,30.19,WSW,248,1.1,3.4,94,0.00,,,0.00,WUHU216HW,2013-08-11 15:08:00,
2013-08-11 11:13:00,74.2,72.4,30.20,West,270,1.1,3.4,94,0.00,,,0.00,WUHU216HW,2013-08-11 15:13:00,
2013-08-11 11:19:00,74.3,72.6,30.19,WSW,248,0.9,2.2,94,0.00,,,0.00,WUHU216HW,2013-08-11 15:19:00,
2013-08-11 11:24:00,74.5,72.4,30.19,WSW,248,1.1,2.9,93,0.00,,,0.00,WUHU216HW,2013-08-11 15:24:00,
2013-08-11 11:29:00,74.9,73.1,30.19,WSW,248,0.4,2.9,94,0.00,,,0.00,WUHU216HW,2013-08-11 15:29:00,
2013-08-11 11:34:00,75.2,73.1,30.19,West,270,0.7,2.2,93,0.00,,,0.00,WUHU216HW,2013-08-11 15:34:00,
2013-08-11 11:39:00,75.2,73.1,30.19,WNW,293,0.4,2.2,93,0.00,,,0.00,WUHU216HW,2013-08-11 15:39:00,
2013-08-11 11:44:00,75.2,73.1,30.19,WSW,248,1.1,1.8,93,0.00,,,0.00,WUHU216HW,2013-08-11 15:44:00,
2013-08-11 11:49:00,75.2,72.8,30.18,WSW,248,1.1,2.5,92,0.00,,,0.00,WUHU216HW,2013-08-11 15:49:00,
2013-08-11 11:54:00,75.2,72.8,30.18,West,270,1.1,2.5,92,0.00,,,0.00,WUHU216HW,2013-08-11 15:54:00,
2013-08-11 11:59:00,75.4,73.0,30.18,SW,225,0.4,1.8,92,0.00,,,0.00,WUHU216HW,2013-08-11 15:59:00,
2013-08-11 12:05:00,76.0,73.5,30.18,WSW,248,0.4,1.8,92,0.00,,,0.00,WUHU216HW,2013-08-11 16:05:00,
2013-08-11 12:10:00,76.1,73.7,30.18,NNW,338,0.7,1.6,92,0.00,,,0.00,WUHU216HW,2013-08-11 16:10:00,
2013-08-11 12:15:00,76.3,73.5,30.18,North,0,0.4,1.8,91,0.00,,,0.00,WUHU216HW,2013-08-11 16:15:00,
2013-08-11 12:20:00,76.5,73.1,30.18,West,270,0.7,1.8,89,0.00,,,0.00,WUHU216HW,2013-08-11 16:20:00,
2013-08-11 12:25:00,76.3,73.3,30.18,West,270,0.4,2.2,90,0.00,,,0.00,WUHU216HW,2013-08-11 16:25:00,
2013-08-11 12:30:00,76.5,73.4,30.18,WSW,248,1.3,2.2,90,0.00,,,0.00,WUHU216HW,2013-08-11 16:30:00,
2013-08-11 12:35:00,76.5,73.1,30.18,West,270,1.1,1.8,89,0.00,,,0.00,WUHU216HW,2013-08-11 16:35:00,
2013-08-11 12:40:00,76.5,73.4,30.18,SW,225,0.7,2.0,90,0.00,,,0.00,WUHU216HW,2013-08-11 16:40:00,
2013-08-11 12:45:00,76.9,73.4,30.18,West,270,2.5,2.5,89,0.00,,,0.00,WUHU216HW,2013-08-11 16:45:00,
2013-08-11 12:51:00,77.2,73.8,30.18,NNW,338,1.1,2.5,89,0.00,,,0.00,WUHU216HW,2013-08-11 16:51:00,
2013-08-11 12:56:00,77.4,73.6,30.17,North,0,0.7,2.5,88,0.00,,,0.00,WUHU216HW,2013-08-11 16:56:00,
2013-08-11 13:01:00,77.6,73.4,30.17,West,270,1.3,2.0,87,0.00,,,0.00,WUHU216HW,2013-08-11 17:01:00,
2013-08-11 13:06:00,77.9,73.8,30.17,SW,225,1.3,2.9,87,0.00,,,0.00,WUHU216HW,2013-08-11 17:06:00,
2013-08-11 13:12:00,78.1,74.0,30.17,WSW,248,1.8,2.9,87,0.00,,,0.00,WUHU216HW,2013-08-11 17:12:00,
2013-08-11 13:17:00,78.5,74.0,30.17,SW,225,2.2,2.7,86,0.00,,,0.00,WUHU216HW,2013-08-11 17:17:00,
2013-08-11 13:23:00,78.7,73.8,30.17,WSW,248,1.6,2.5,85,0.00,,,0.00,WUHU216HW,2013-08-11 17:23:00,
2013-08-11 13:28:00,78.8,74.0,30.16,West,270,0.0,2.2,85,0.00,,,0.00,WUHU216HW,2013-08-11 17:28:00,
2013-08-11 13:33:00,79.0,73.5,30.16,West,270,2.5,2.5,83,0.00,,,0.00,WUHU216HW,2013-08-11 17:33:00,
2013-08-11 13:38:00,79.2,73.6,30.16,West,270,1.6,2.5,83,0.00,,,0.00,WUHU216HW,2013-08-11 17:38:00,
2013-08-11 13:44:00,79.2,73.6,30.15,WSW,248,0.7,2.5,83,0.00,,,0.00,WUHU216HW,2013-08-11 17:44:00,
2013-08-11 13:49:00,79.6,74.4,30.15,West,270,0.9,2.2,84,0.00,,,0.00,WUHU216HW,2013-08-11 17:49:00,
2013-08-11 13:54:00,79.7,74.5,30.15,SW,225,1.3,2.2,84,0.00,,,0.00,WUHU216HW,2013-08-11 17:54:00,
2013-08-11 13:59:00,79.9,74.0,30.15,West,270,1.1,2.5,82,0.00,,,0.00,WUHU216HW,2013-08-11 17:59:00,
2013-08-11 14:04:00,80.1,73.8,30.14,West,270,0.9,2.5,81,0.00,,,0.00,WUHU216HW,2013-08-11 18:04:00,
2013-08-11 14:09:00,80.1,74.2,30.14,WSW,248,0.7,2.5,82,0.00,,,0.00,WUHU216HW,2013-08-11 18:09:00,
2013-08-11 14:15:00,79.9,74.0,30.14,North,0,1.3,2.2,82,0.00,,,0.00,WUHU216HW,2013-08-11 18:15:00,
2013-08-11 14:20:00,79.9,74.0,30.14,NNW,338,0.0,2.2,82,0.00,,,0.00,WUHU216HW,2013-08-11 18:20:00,
2013-08-11 14:25:00,80.3,74.4,30.13,WSW,248,1.8,1.8,82,0.00,,,0.00,WUHU216HW,2013-08-11 18:25:00,
2013-08-11 14:30:00,80.3,74.4,30.13,SW,225,1.3,2.2,82,0.00,,,0.00,WUHU216HW,2013-08-11 18:30:00,
2013-08-11 14:35:00,80.3,74.4,30.14,WSW,248,0.7,2.2,82,0.00,,,0.00,WUHU216HW,2013-08-11 18:35:00,
2013-08-11 14:40:00,80.5,74.5,30.13,WSW,248,0.0,1.3,82,0.00,,,0.00,WUHU216HW,2013-08-11 18:40:00,
2013-08-11 14:45:00,80.8,75.2,30.13,SE,135,0.0,1.8,83,0.00,,,0.00,WUHU216HW,2013-08-11 18:45:00,
2013-08-11 14:50:00,81.0,75.1,30.13,SE,135,1.6,2.0,82,0.00,,,0.00,WUHU216HW,2013-08-11 18:50:00,
2013-08-11 14:56:00,81.0,74.7,30.13,SSE,158,0.2,2.7,81,0.00,,,0.00,WUHU216HW,2013-08-11 18:56:00,
2013-08-11 15:01:00,81.4,75.4,30.12,WSW,248,2.5,2.7,82,0.00,,,0.00,WUHU216HW,2013-08-11 19:01:00,
2013-08-11 15:06:00,81.7,75.8,30.12,WSW,248,0.4,2.5,82,0.00,,,0.00,WUHU216HW,2013-08-11 19:06:00,
2013-08-11 15:11:00,82.1,75.8,30.12,SSE,158,1.8,2.5,81,0.00,,,0.00,WUHU216HW,2013-08-11 19:11:00,
2013-08-11 15:16:00,82.1,75.0,30.12,NW,315,1.8,2.2,79,0.00,,,0.00,WUHU216HW,2013-08-11 19:16:00,
2013-08-11 15:21:00,81.7,74.6,30.12,West,270,0.2,2.2,79,0.00,,,0.00,WUHU216HW,2013-08-11 19:21:00,
2013-08-11 15:27:00,81.9,75.2,30.12,SW,225,2.0,2.0,80,0.00,,,0.00,WUHU216HW,2013-08-11 19:27:00,
2013-08-11 15:32:00,82.1,75.8,30.12,West,270,0.7,2.0,81,0.00,,,0.00,WUHU216HW,2013-08-11 19:32:00,
2013-08-11 15:37:00,82.3,75.6,30.12,West,270,0.2,2.2,80,0.00,,,0.00,WUHU216HW,2013-08-11 19:37:00,
2013-08-11 15:42:00,82.3,75.6,30.11,West,270,1.1,2.2,80,0.00,,,0.00,WUHU216HW,2013-08-11 19:42:00,
2013-08-11 15:47:00,82.4,75.8,30.11,NNW,338,1.1,2.5,80,0.00,,,0.00,WUHU216HW,2013-08-11 19:47:00,
2013-08-11 15:52:00,82.6,76.0,30.11,South,180,0.9,2.5,80,0.00,,,0.00,WUHU216HW,2013-08-11 19:52:00,
2013-08-11 15:57:00,82.4,75.3,30.11,WSW,248,1.3,1.6,79,0.00,,,0.00,WUHU216HW,2013-08-11 19:57:00,
2013-08-11 16:02:00,81.9,74.8,30.11,West,270,0.4,2.7,79,0.00,,,0.00,WUHU216HW,2013-08-11 20:02:00,
2013-08-11 16:07:00,81.5,74.4,30.11,WNW,293,1.1,2.7,79,0.00,,,0.00,WUHU216HW,2013-08-11 20:07:00,
2013-08-11 16:12:00,80.8,73.4,30.11,West,270,1.3,1.8,78,0.00,,,0.00,WUHU216HW,2013-08-11 20:12:00,
2013-08-11 16:18:00,80.3,73.3,30.11,NNW,338,1.3,4.0,79,0.00,,,0.00,WUHU216HW,2013-08-11 20:18:00,
2013-08-11 16:23:00,79.7,73.1,30.12,NW,315,0.2,4.0,80,0.00,,,0.00,WUHU216HW,2013-08-11 20:23:00,
2013-08-11 16:28:00,79.2,72.9,30.11,NW,315,0.0,4.0,81,0.00,,,0.00,WUHU216HW,2013-08-11 20:28:00,
2013-08-11 16:33:00,78.8,72.9,30.11,North,0,0.0,1.1,82,0.00,,,0.00,WUHU216HW,2013-08-11 20:33:00,
2013-08-11 16:38:00,78.5,72.9,30.11,WSW,248,1.1,1.3,83,0.00,,,0.00,WUHU216HW,2013-08-11 20:38:00,
2013-08-11 16:43:00,77.9,72.7,30.11,WSW,248,0.7,1.3,84,0.00,,,0.00,WUHU216HW,2013-08-11 20:43:00,
2013-08-11 16:48:00,77.6,72.7,30.11,WSW,248,0.4,1.1,85,0.00,,,0.00,WUHU216HW,2013-08-11 20:48:00,
2013-08-11 16:53:00,77.4,72.5,30.11,WSW,248,0.0,1.1,85,0.00,,,0.00,WUHU216HW,2013-08-11 20:53:00,
2013-08-11 16:59:00,77.4,72.9,30.11,SE,135,0.4,0.4,86,0.00,,,0.00,WUHU216HW,2013-08-11 20:59:00,
2013-08-11 17:04:00,77.4,72.9,30.11,SE,135,0.0,0.4,86,0.00,,,0.00,WUHU216HW,2013-08-11 21:04:00,
2013-08-11 17:09:00,77.6,73.4,30.11,SSE,158,0.4,0.9,87,0.00,,,0.00,WUHU216HW,2013-08-11 21:09:00,
2013-08-11 17:14:00,77.6,73.4,30.11,SSE,158,0.0,0.9,87,0.00,,,0.00,WUHU216HW,2013-08-11 21:14:00,
2013-08-11 17:19:00,77.6,73.4,30.11,SW,225,0.2,0.7,87,0.00,,,0.00,WUHU216HW,2013-08-11 21:19:00,
2013-08-11 17:24:00,77.4,73.6,30.12,WSW,248,0.9,1.3,88,0.00,,,0.00,WUHU216HW,2013-08-11 21:24:00,
2013-08-11 17:29:00,77.2,73.4,30.12,SW,225,0.9,1.3,88,0.00,,,0.00,WUHU216HW,2013-08-11 21:29:00,
2013-08-11 17:34:00,76.9,73.1,30.11,WSW,248,0.0,1.1,88,0.00,,,0.00,WUHU216HW,2013-08-11 21:34:00,
2013-08-11 17:39:00,76.7,72.9,30.11,WSW,248,0.4,1.6,88,0.00,,,0.00,WUHU216HW,2013-08-11 21:39:00,
2013-08-11 17:44:00,76.5,72.7,30.12,WSW,248,0.4,1.6,88,0.00,,,0.00,WUHU216HW,2013-08-11 21:44:00,
2013-08-11 17:49:00,76.3,72.2,30.12,WSW,248,0.0,1.1,87,0.00,,,0.00,WUHU216HW,2013-08-11 21:49:00,
2013-08-11 17:55:00,76.3,72.2,30.11,ESE,113,0.7,1.8,87,0.00,,,0.00,WUHU216HW,2013-08-11 21:55:00,
2013-08-11 18:00:00,76.1,72.0,30.11,WSW,248,0.0,1.8,87,0.00,,,0.00,WUHU216HW,2013-08-11 22:00:00,
2013-08-11 18:05:00,76.0,71.8,30.12,WSW,248,0.9,0.9,87,0.00,,,0.00,WUHU216HW,2013-08-11 22:05:00,
2013-08-11 18:10:00,75.8,71.6,30.11,SSE,158,0.0,0.9,87,0.00,,,0.00,WUHU216HW,2013-08-11 22:10:00,
2013-08-11 18:15:00,75.6,71.5,30.11,WSW,248,0.4,0.9,87,0.00,,,0.00,WUHU216HW,2013-08-11 22:15:00,
2013-08-11 18:20:00,75.2,71.2,30.12,WSW,248,0.4,1.1,87,0.00,,,0.00,WUHU216HW,2013-08-11 22:20:00,
2013-08-11 18:25:00,75.1,71.0,30.12,SW,225,0.0,1.1,87,0.00,,,0.00,WUHU216HW,2013-08-11 22:25:00,
2013-08-11 18:30:00,74.9,70.8,30.13,WSW,248,0.7,1.3,87,0.00,,,0.00,WUHU216HW,2013-08-11 22:30:00,
2013-08-11 18:35:00,74.7,70.7,30.12,ESE,113,0.0,1.3,87,0.00,,,0.00,WUHU216HW,2013-08-11 22:35:00,
2013-08-11 18:40:00,74.5,70.7,30.13,WSW,248,0.0,1.3,88,0.00,,,0.00,WUHU216HW,2013-08-11 22:40:00,
2013-08-11 18:45:00,74.5,70.7,30.13,WSW,248,0.0,1.3,88,0.00,,,0.00,WUHU216HW,2013-08-11 22:45:00,
2013-08-11 18:51:00,74.5,70.7,30.13,WSW,248,0.0,1.1,88,0.00,,,0.00,WUHU216HW,2013-08-11 22:51:00,
2013-08-11 18:56:00,74.5,70.7,30.14,WSW,248,0.0,1.1,88,0.00,,,0.00,WUHU216HW,2013-08-11 22:56:00,
2013-08-11 19:01:00,74.5,70.7,30.13,WSW,248,0.0,0.0,88,0.00,,,0.00,WUHU216HW,2013-08-11 23:01:00,
2013-08-11 19:06:00,74.5,70.7,30.13,WSW,248,0.0,0.4,88,0.00,,,0.00,WUHU216HW,2013-08-11 23:06:00,
2013-08-11 19:11:00,74.5,70.7,30.13,ENE,68,0.2,1.1,88,0.00,,,0.00,WUHU216HW,2013-08-11 23:11:00,
2013-08-11 19:16:00,74.5,70.7,30.13,NE,45,0.9,1.1,88,0.00,,,0.00,WUHU216HW,2013-08-11 23:16:00,
2013-08-11 19:21:00,74.3,70.6,30.13,West,270,0.2,0.9,88,0.00,,,0.00,WUHU216HW,2013-08-11 23:21:00,
2013-08-11 19:26:00,74.2,70.4,30.13,West,270,0.0,0.7,88,0.00,,,0.00,WUHU216HW,2013-08-11 23:26:00,
2013-08-11 19:31:00,74.2,70.4,30.13,WSW,248,0.0,0.4,88,0.00,,,0.00,WUHU216HW,2013-08-11 23:31:00,
2013-08-11 19:36:00,74.0,70.6,30.13,West,270,0.0,0.4,89,0.00,,,0.00,WUHU216HW,2013-08-11 23:36:00,
2013-08-11 19:43:00,74.0,70.6,30.13,West,270,0.0,0.4,89,0.00,,,0.00,WUHU216HW,2013-08-11 23:43:00,
2013-08-11 19:48:00,74.0,70.6,30.14,West,270,0.0,0.0,89,0.00,,,0.00,WUHU216HW,2013-08-11 23:48:00,
2013-08-11 19:53:00,73.8,70.4,30.14,SE,135,0.0,0.4,89,0.00,,,0.00,WUHU216HW,2013-08-11 23:53:00,
2013-08-11 19:58:00,73.8,70.4,30.14,SSE,158,0.0,0.4,89,0.00,,,0.00,WUHU216HW,2013-08-11 23:58:00,
2013-08-11 20:03:00,73.8,70.4,30.14,WSW,248,0.2,0.7,89,0.00,,,0.00,WUHU216HW,2013-08-12 00:03:00,
2013-08-11 20:08:00,73.8,70.4,30.13,WSW,248,0.0,0.7,89,0.00,,,0.00,WUHU216HW,2013-08-12 00:08:00,
2013-08-11 20:13:00,73.8,70.4,30.13,WSW,248,0.0,0.0,89,0.00,,,0.00,WUHU216HW,2013-08-12 00:13:00,
2013-08-11 20:18:00,73.8,70.4,30.13,WSW,248,1.3,1.3,89,0.00,,,0.00,WUHU216HW,2013-08-12 00:18:00,
2013-08-11 20:23:00,73.4,70.0,30.13,West,270,0.9,1.3,89,0.00,,,0.00,WUHU216HW,2013-08-12 00:23:00,
2013-08-11 20:28:00,73.3,70.2,30.13,West,270,0.9,1.3,90,0.00,,,0.00,WUHU216HW,2013-08-12 00:28:00,
2013-08-11 20:33:00,73.1,69.7,30.13,West,270,1.1,1.1,89,0.00,,,0.00,WUHU216HW,2013-08-12 00:33:00,
2013-08-11 20:39:00,73.1,69.7,30.13,West,270,0.9,1.1,89,0.00,,,0.00,WUHU216HW,2013-08-12 00:39:00,
2013-08-11 20:44:00,73.1,69.7,30.13,WNW,293,0.0,0.9,89,0.00,,,0.00,WUHU216HW,2013-08-12 00:44:00,
2013-08-11 20:49:00,73.1,69.7,30.13,West,270,1.1,1.1,89,0.00,,,0.00,WUHU216HW,2013-08-12 00:49:00,
2013-08-11 20:54:00,72.9,69.5,30.13,West,270,0.0,1.3,89,0.00,,,0.00,WUHU216HW,2013-08-12 00:54:00,
2013-08-11 20:59:00,72.7,69.3,30.13,West,270,0.0,1.3,89,0.00,,,0.00,WUHU216HW,2013-08-12 00:59:00,
2013-08-11 21:04:00,72.7,69.7,30.13,West,270,0.0,0.0,90,0.00,,,0.00,WUHU216HW,2013-08-12 01:04:00,
2013-08-11 21:09:00,72.7,69.7,30.13,WSW,248,0.4,1.1,90,0.00,,,0.00,WUHU216HW,2013-08-12 01:09:00,
2013-08-11 21:14:00,72.5,69.5,30.14,WSW,248,0.0,1.1,90,0.00,,,0.00,WUHU216HW,2013-08-12 01:14:00,
2013-08-11 21:20:00,72.5,69.5,30.13,WSW,248,0.0,0.7,90,0.00,,,0.00,WUHU216HW,2013-08-12 01:20:00,
2013-08-11 21:25:00,72.5,69.5,30.13,WSW,248,0.0,0.0,90,0.00,,,0.00,WUHU216HW,2013-08-12 01:25:00,
2013-08-11 21:30:00,72.4,69.3,30.13,WSW,248,0.7,0.9,90,0.00,,,0.00,WUHU216HW,2013-08-12 01:30:00,
2013-08-11 21:35:00,72.4,69.3,30.13,WSW,248,0.0,0.9,90,0.00,,,0.00,WUHU216HW,2013-08-12 01:35:00,
2013-08-11 21:40:00,72.4,69.3,30.14,NW,315,0.0,0.7,90,0.00,,,0.00,WUHU216HW,2013-08-12 01:40:00,
2013-08-11 21:45:00,72.4,69.3,30.14,NW,315,0.0,0.4,90,0.00,,,0.00,WUHU216HW,2013-08-12 01:45:00,
2013-08-11 21:51:00,72.4,69.3,30.14,NNW,338,0.0,0.4,90,0.00,,,0.00,WUHU216HW,2013-08-12 01:51:00,
2013-08-11 21:56:00,72.4,69.3,30.14,NNW,338,0.0,0.4,90,0.00,,,0.00,WUHU216HW,2013-08-12 01:56:00,
2013-08-11 22:01:00,72.4,69.3,30.15,NNW,338,0.0,0.0,90,0.00,,,0.00,WUHU216HW,2013-08-12 02:01:00,
2013-08-11 22:06:00,72.4,69.3,30.15,NNW,338,0.0,0.0,90,0.00,,,0.00,WUHU216HW,2013-08-12 02:06:00,
2013-08-11 22:11:00,72.4,69.3,30.15,NNW,338,0.0,0.0,90,0.00,,,0.00,WUHU216HW,2013-08-12 02:11:00,
2013-08-11 22:16:00,72.4,69.3,30.15,NNW,338,0.0,0.0,90,0.00,,,0.00,WUHU216HW,2013-08-12 02:16:00,
2013-08-11 22:22:00,72.2,69.1,30.15,NNW,338,0.0,0.0,90,0.00,,,0.00,WUHU216HW,2013-08-12 02:22:00,
2013-08-11 22:27:00,72.2,69.1,30.15,NNW,338,0.0,0.0,90,0.00,,,0.00,WUHU216HW,2013-08-12 02:27:00,
2013-08-11 22:32:00,72.2,69.1,30.16,NNW,338,0.0,0.0,90,0.00,,,0.00,WUHU216HW,2013-08-12 02:32:00,
2013-08-11 22:37:00,72.2,69.1,30.16,NNW,338,0.0,0.0,90,0.00,,,0.00,WUHU216HW,2013-08-12 02:37:00,
2013-08-11 22:42:00,72.2,69.1,30.16,NNW,338,0.0,0.2,90,0.00,,,0.00,WUHU216HW,2013-08-12 02:42:00,
2013-08-11 22:47:00,72.2,69.1,30.15,NNW,338,0.0,0.2,90,0.00,,,0.00,WUHU216HW,2013-08-12 02:47:00,
2013-08-11 22:52:00,72.0,68.9,30.15,NNW,338,0.0,0.0,90,0.00,,,0.00,WUHU216HW,2013-08-12 02:52:00,
2013-08-11 22:57:00,72.0,68.9,30.15,NNW,338,0.0,0.0,90,0.00,,,0.00,WUHU216HW,2013-08-12 02:57:00,
2013-08-11 23:02:00,71.8,68.8,30.16,NNW,338,0.0,0.0,90,0.00,,,0.00,WUHU216HW,2013-08-12 03:02:00,
2013-08-11 23:07:00,71.6,68.6,30.16,NW,315,0.0,0.0,90,0.00,,,0.00,WUHU216HW,2013-08-12 03:07:00,
2013-08-11 23:12:00,71.6,68.6,30.16,NW,315,0.0,0.0,90,0.00,,,0.00,WUHU216HW,2013-08-12 03:12:00,
2013-08-11 23:17:00,71.6,68.6,30.15,NW,315,0.0,0.0,90,0.00,,,0.00,WUHU216HW,2013-08-12 03:17:00,
2013-08-11 23:23:00,71.6,68.6,30.15,NW,315,0.0,0.0,90,0.00,,,0.00,WUHU216HW,2013-08-12 03:23:00,
2013-08-11 23:28:00,71.6,68.6,30.15,NW,315,0.0,0.0,90,0.00,,,0.00,WUHU216HW,2013-08-12 03:28:00,
2013-08-11 23:33:00,71.6,68.6,30.16,NW,315,0.0,0.0,90,0.00,,,0.00,WUHU216HW,2013-08-12 03:33:00,
2013-08-11 23:38:00,71.6,68.6,30.16,NW,315,0.0,0.0,90,0.00,,,0.00,WUHU216HW,2013-08-12 03:38:00,
2013-08-11 23:43:00,71.6,68.6,30.15,NW,315,0.0,0.0,90,0.00,,,0.00,WUHU216HW,2013-08-12 03:43:00,
2013-08-11 23:48:00,71.5,68.4,30.15,NW,315,0.0,0.0,90,0.00,,,0.00,WUHU216HW,2013-08-12 03:48:00,
2013-08-11 23:53:00,71.5,68.4,30.16,NW,315,0.0,0.0,90,0.00,,,0.00,WUHU216HW,2013-08-12 03:53:00,
2013-08-11 23:58:00,71.3,68.2,30.15,NW,315,0.0,0.0,90,0.00,,,0.00,WUHU216HW,2013-08-12 03:58:00,